Simultaneous Nadir Overpasses (SNOs) Predictions

Prediction of SNOs between AQUA and METOP-A Satellite Orbit:

Table of predicted SNOs for the next 14.0 days since TLE Epoch: 11/7/2015
Index Date (AQUA) Time (AQUA) Lat,Lon (AQUA) SZA (AQUA ) Date (METOP-A) Time (METOP-A) Lat,Lon (METOP-A) SZA (METOP-A ) Distance(km) Time Diff (sec)
1 11/07/2015 19:19:33 -73.89, 64.17 89.84 11/07/2015 19:18:34 -73.88, 64.28 89.85 3.81 59
2 11/07/2015 20:09:01 73.91,-128.23 90.19 11/07/2015 20:09:13 73.91,-128.31 90.19 2.59 12
3 11/07/2015 20:58:36 -74.40, 38.27 89.30 11/07/2015 20:59:44 -74.45, 40.38 89.27 63.43 68
4 11/10/2015 14:53:47 -73.90, 130.61 89.03 11/10/2015 14:53:00 -73.87, 130.66 89.06 3.25 47
5 11/10/2015 15:43:15 73.91, -61.80 91.00 11/10/2015 15:43:38 73.94, -61.83 91.03 3.29 23
6 11/13/2015 10:27:59 -73.87,-162.89 88.29 11/13/2015 10:27:25 -73.85,-162.98 88.30 3.31 34
7 11/13/2015 11:17:28 73.95, 4.57 91.81 11/13/2015 11:18:03 73.92, 4.52 91.78 3.33 35
8 11/16/2015 06:02:12 -73.87, -96.45 87.56 11/16/2015 06:01:50 -73.88, -96.51 87.55 2.10 22
9 11/16/2015 06:51:41 73.95, 71.00 92.54 11/16/2015 06:52:28 73.94, 70.98 92.53 1.59 47
10 11/19/2015 00:46:51 73.47, 163.24 92.71 11/19/2015 00:45:42 73.43, 161.51 92.70 54.80 69
11 11/19/2015 01:36:25 -73.90, -30.06 86.84 11/19/2015 01:36:15 -73.90, -30.06 86.84 0.14 10
12 11/19/2015 02:25:53 73.94, 137.50 93.21 11/19/2015 02:26:53 73.96, 137.42 93.23 3.37 60




NCC Satellite Simultaneous Nadir Overpasses (SNOs) Prediction Service
